Time,TemperatureF,DewpointF,PressureIn,WindDirection,WindDirectionDegrees,WindSpeedMPH,WindSpeedGustMPH,Humidity,HourlyPrecipIn,Conditions,Clouds,dailyrainin,SoftwareType,DateUTC
2013-03-13 00:08:00,50.7,49.0,29.76,SW,229,5.0,10.0,95,0.00,,,0.00,weatherlink.com 1.10,2013-03-13 04:08:00,
2013-03-13 00:23:00,49.1,47.0,29.77,West,265,4.0,10.0,93,0.00,,,0.00,weatherlink.com 1.10,2013-03-13 04:23:00,
2013-03-13 00:38:00,47.4,45.0,29.77,WSW,255,3.0,11.0,92,0.00,,,0.00,weatherlink.com 1.10,2013-03-13 04:38:00,
2013-03-13 00:53:00,46.8,45.0,29.77,WNW,297,4.0,9.0,92,0.00,,,0.00,weatherlink.com 1.10,2013-03-13 04:53:00,
2013-03-13 01:08:00,46.1,43.0,29.77,WNW,288,4.0,13.0,90,0.00,,,0.00,weatherlink.com 1.10,2013-03-13 05:08:00,
2013-03-13 01:23:00,45.3,42.0,29.77,NW,309,8.0,13.0,89,0.00,,,0.00,weatherlink.com 1.10,2013-03-13 05:23:00,
2013-03-13 01:38:00,44.6,42.0,29.76,WNW,302,4.0,14.0,89,0.00,,,0.00,weatherlink.com 1.10,2013-03-13 05:38:00,
2013-03-13 01:53:00,44.3,41.0,29.77,NW,307,5.0,12.0,88,0.00,,,0.00,weatherlink.com 1.10,2013-03-13 05:53:00,
2013-03-13 02:08:00,44.0,40.0,29.77,WNW,297,3.0,10.0,87,0.00,,,0.00,weatherlink.com 1.10,2013-03-13 06:08:00,
2013-03-13 02:23:00,43.7,40.0,29.78,WNW,285,2.0,11.0,86,0.00,,,0.00,weatherlink.com 1.10,2013-03-13 06:23:00,
2013-03-13 02:38:00,43.2,39.0,29.78,WNW,303,6.0,12.0,84,0.00,,,0.00,weatherlink.com 1.10,2013-03-13 06:38:00,
2013-03-13 02:53:00,42.8,38.0,29.77,WNW,290,2.0,12.0,84,0.00,,,0.00,weatherlink.com 1.10,2013-03-13 06:53:00,
2013-03-13 03:08:00,42.3,38.0,29.78,West,270,3.0,10.0,83,0.00,,,0.00,weatherlink.com 1.10,2013-03-13 07:08:00,
2013-03-13 03:23:00,41.7,37.0,29.77,NW,307,6.0,12.0,84,0.00,,,0.00,weatherlink.com 1.10,2013-03-13 07:23:00,
2013-03-13 03:38:00,41.2,37.0,29.77,WNW,298,2.0,13.0,85,0.00,,,0.00,weatherlink.com 1.10,2013-03-13 07:38:00,
2013-03-13 03:53:00,41.0,37.0,29.78,WNW,301,7.0,7.0,85,0.00,,,0.00,weatherlink.com 1.10,2013-03-13 07:53:00,
2013-03-13 04:08:00,40.8,36.0,29.78,WNW,297,4.0,7.0,84,0.00,,,0.00,weatherlink.com 1.10,2013-03-13 08:08:00,
2013-03-13 04:23:00,40.4,36.0,29.79,NW,307,3.0,10.0,83,0.00,,,0.00,weatherlink.com 1.10,2013-03-13 08:23:00,
2013-03-13 04:39:00,40.2,35.0,29.78,WNW,284,2.0,11.0,82,0.00,,,0.00,weatherlink.com 1.10,2013-03-13 08:39:00,
2013-03-13 04:54:00,39.8,35.0,29.78,NW,311,11.0,11.0,82,0.00,,,0.00,weatherlink.com 1.10,2013-03-13 08:54:00,
2013-03-13 05:09:00,39.2,34.0,29.79,West,281,2.0,10.0,82,0.00,,,0.00,weatherlink.com 1.10,2013-03-13 09:09:00,
2013-03-13 05:24:00,38.8,34.0,29.79,West,264,3.0,8.0,82,0.00,,,0.00,weatherlink.com 1.10,2013-03-13 09:24:00,
2013-03-13 05:39:00,38.5,33.0,29.80,WNW,295,6.0,10.0,82,0.00,,,0.00,weatherlink.com 1.10,2013-03-13 09:39:00,
2013-03-13 05:54:00,38.2,33.0,29.80,WNW,300,3.0,11.0,81,0.00,,,0.00,weatherlink.com 1.10,2013-03-13 09:54:00,
2013-03-13 06:09:00,37.7,33.0,29.79,NW,304,7.0,13.0,82,0.00,,,0.00,weatherlink.com 1.10,2013-03-13 10:09:00,
2013-03-13 06:24:00,37.3,32.0,29.79,WNW,291,3.0,9.0,82,0.00,,,0.00,weatherlink.com 1.10,2013-03-13 10:24:00,
2013-03-13 06:39:00,36.9,32.0,29.79,NNW,330,3.0,10.0,83,0.00,,,0.00,weatherlink.com 1.10,2013-03-13 10:39:00,
2013-03-13 06:54:00,36.5,32.0,29.79,WNW,302,2.0,8.0,83,0.00,,,0.00,weatherlink.com 1.10,2013-03-13 10:54:00,
2013-03-13 07:09:00,36.3,32.0,29.79,NW,311,5.0,9.0,83,0.00,,,0.00,weatherlink.com 1.10,2013-03-13 11:09:00,
2013-03-13 07:24:00,36.5,32.0,29.79,NW,314,3.0,7.0,82,0.00,,,0.00,weatherlink.com 1.10,2013-03-13 11:24:00,
2013-03-13 07:39:00,36.8,31.0,29.79,NW,311,8.0,9.0,80,0.00,,,0.00,weatherlink.com 1.10,2013-03-13 11:39:00,
2013-03-13 07:54:00,37.3,31.0,29.79,NW,315,3.0,8.0,79,0.00,,,0.00,weatherlink.com 1.10,2013-03-13 11:54:00,
2013-03-13 08:09:00,37.6,31.0,29.79,NW,304,3.0,9.0,78,0.00,,,0.00,weatherlink.com 1.10,2013-03-13 12:09:00,
2013-03-13 08:24:00,38.0,31.0,29.79,West,276,2.0,7.0,77,0.00,,,0.00,weatherlink.com 1.10,2013-03-13 12:24:00,
2013-03-13 08:39:00,38.6,31.0,29.79,WNW,297,6.0,10.0,74,0.00,,,0.00,weatherlink.com 1.10,2013-03-13 12:39:00,
2013-03-13 08:54:00,38.9,31.0,29.79,WNW,290,2.0,9.0,74,0.00,,,0.00,weatherlink.com 1.10,2013-03-13 12:54:00,
2013-03-13 09:09:00,39.4,31.0,29.79,WNW,293,7.0,8.0,73,0.00,,,0.00,weatherlink.com 1.10,2013-03-13 13:09:00,
2013-03-13 09:24:00,39.8,31.0,29.79,WNW,302,3.0,9.0,72,0.00,,,0.00,weatherlink.com 1.10,2013-03-13 13:24:00,
2013-03-13 09:39:00,40.7,31.0,29.79,WNW,285,3.0,12.0,69,0.00,,,0.00,weatherlink.com 1.10,2013-03-13 13:39:00,
2013-03-13 09:54:00,41.1,31.0,29.79,WSW,256,4.0,12.0,67,0.00,,,0.00,weatherlink.com 1.10,2013-03-13 13:54:00,
2013-03-13 10:09:00,42.2,31.0,29.78,West,281,4.0,13.0,66,0.00,,,0.00,weatherlink.com 1.10,2013-03-13 14:09:00,
2013-03-13 10:24:00,42.8,32.0,29.78,NW,310,8.0,13.0,65,0.00,,,0.00,weatherlink.com 1.10,2013-03-13 14:24:00,
2013-03-13 10:39:00,43.5,32.0,29.77,WNW,295,6.0,16.0,63,0.00,,,0.00,weatherlink.com 1.10,2013-03-13 14:39:00,
2013-03-13 10:54:00,44.7,31.0,29.77,West,276,3.0,14.0,59,0.00,,,0.00,weatherlink.com 1.10,2013-03-13 14:54:00,
2013-03-13 11:09:00,44.8,31.0,29.77,WSW,249,7.0,17.0,60,0.00,,,0.00,weatherlink.com 1.10,2013-03-13 15:09:00,
2013-03-13 11:24:00,44.7,31.0,29.77,West,278,5.0,13.0,59,0.00,,,0.00,weatherlink.com 1.10,2013-03-13 15:24:00,
2013-03-13 11:39:00,45.0,32.0,29.77,WNW,292,8.0,13.0,60,0.00,,,0.00,weatherlink.com 1.10,2013-03-13 15:39:00,
2013-03-13 11:54:00,46.2,32.0,29.77,WSW,238,5.0,12.0,58,0.00,,,0.00,weatherlink.com 1.10,2013-03-13 15:54:00,
2013-03-13 12:09:00,46.0,30.0,29.77,NW,307,10.0,19.0,55,0.00,,,0.00,weatherlink.com 1.10,2013-03-13 16:09:00,
2013-03-13 12:24:00,46.4,32.0,29.77,West,273,11.0,14.0,57,0.00,,,0.00,weatherlink.com 1.10,2013-03-13 16:24:00,
2013-03-13 12:39:00,46.1,31.0,29.77,WNW,283,4.0,18.0,55,0.00,,,0.00,weatherlink.com 1.10,2013-03-13 16:39:00,
2013-03-13 12:54:00,46.6,31.0,29.76,WNW,297,7.0,18.0,55,0.00,,,0.00,weatherlink.com 1.10,2013-03-13 16:54:00,
2013-03-13 13:09:00,47.1,31.0,29.75,WSW,248,2.0,14.0,54,0.00,,,0.00,weatherlink.com 1.10,2013-03-13 17:09:00,
2013-03-13 13:24:00,47.4,30.0,29.75,West,267,5.0,12.0,51,0.00,,,0.00,weatherlink.com 1.10,2013-03-13 17:24:00,
2013-03-13 13:39:00,47.6,29.0,29.75,West,264,7.0,16.0,49,0.00,,,0.00,weatherlink.com 1.10,2013-03-13 17:39:00,
2013-03-13 13:54:00,47.4,28.0,29.75,NW,304,5.0,15.0,47,0.00,,,0.00,weatherlink.com 1.10,2013-03-13 17:54:00,
2013-03-13 14:09:00,47.8,28.0,29.74,NW,315,7.0,17.0,47,0.00,,,0.00,weatherlink.com 1.10,2013-03-13 18:09:00,
2013-03-13 14:24:00,47.3,28.0,29.73,NW,309,8.0,18.0,47,0.00,,,0.00,weatherlink.com 1.10,2013-03-13 18:24:00,
2013-03-13 14:39:00,47.9,28.0,29.73,NNW,338,7.0,14.0,46,0.00,,,0.00,weatherlink.com 1.10,2013-03-13 18:39:00,
2013-03-13 14:54:00,48.2,26.0,29.73,WNW,295,11.0,14.0,43,0.00,,,0.00,weatherlink.com 1.10,2013-03-13 18:54:00,
2013-03-13 15:09:00,48.6,26.0,29.73,NW,309,9.0,12.0,41,0.00,,,0.00,weatherlink.com 1.10,2013-03-13 19:09:00,
2013-03-13 15:24:00,48.8,26.0,29.73,WNW,301,10.0,16.0,42,0.00,,,0.00,weatherlink.com 1.10,2013-03-13 19:24:00,
2013-03-13 15:39:00,49.4,26.0,29.72,West,262,7.0,14.0,41,0.00,,,0.00,weatherlink.com 1.10,2013-03-13 19:39:00,
2013-03-13 15:54:00,49.2,24.0,29.72,WNW,298,2.0,18.0,38,0.00,,,0.00,weatherlink.com 1.10,2013-03-13 19:54:00,
2013-03-13 16:10:00,49.2,24.0,29.72,WNW,290,5.0,15.0,37,0.00,,,0.00,weatherlink.com 1.10,2013-03-13 20:10:00,
2013-03-13 16:25:00,49.1,23.0,29.72,West,278,5.0,14.0,36,0.00,,,0.00,weatherlink.com 1.10,2013-03-13 20:25:00,
2013-03-13 16:40:00,49.1,22.0,29.73,WNW,297,7.0,15.0,35,0.00,,,0.00,weatherlink.com 1.10,2013-03-13 20:40:00,
2013-03-13 16:55:00,47.9,21.0,29.73,WNW,303,1.0,21.0,34,0.00,,,0.00,weatherlink.com 1.10,2013-03-13 20:55:00,
2013-03-13 17:10:00,48.1,21.0,29.73,NW,321,3.0,17.0,34,0.00,,,0.00,weatherlink.com 1.10,2013-03-13 21:10:00,
2013-03-13 17:25:00,47.7,22.0,29.74,West,272,9.0,13.0,36,0.00,,,0.00,weatherlink.com 1.10,2013-03-13 21:25:00,
2013-03-13 17:40:00,47.4,21.0,29.74,WNW,285,5.0,16.0,36,0.00,,,0.00,weatherlink.com 1.10,2013-03-13 21:40:00,
2013-03-13 17:55:00,46.9,21.0,29.74,West,280,5.0,17.0,36,0.00,,,0.00,weatherlink.com 1.10,2013-03-13 21:55:00,
2013-03-13 18:10:00,46.3,21.0,29.75,West,267,4.0,15.0,37,0.00,,,0.00,weatherlink.com 1.10,2013-03-13 22:10:00,
2013-03-13 18:25:00,45.5,20.0,29.75,West,271,9.0,15.0,37,0.00,,,0.00,weatherlink.com 1.10,2013-03-13 22:25:00,
2013-03-13 18:40:00,44.7,20.0,29.76,WNW,292,5.0,16.0,38,0.00,,,0.00,weatherlink.com 1.10,2013-03-13 22:40:00,
2013-03-13 18:55:00,44.2,20.0,29.76,WNW,288,2.0,12.0,38,0.00,,,0.00,weatherlink.com 1.10,2013-03-13 22:55:00,
2013-03-13 19:10:00,43.8,20.0,29.76,West,264,1.0,14.0,39,0.00,,,0.00,weatherlink.com 1.10,2013-03-13 23:10:00,
2013-03-13 19:25:00,43.3,20.0,29.77,WSW,242,3.0,9.0,40,0.00,,,0.00,weatherlink.com 1.10,2013-03-13 23:25:00,
2013-03-13 19:40:00,42.8,20.0,29.78,WNW,283,2.0,6.0,41,0.00,,,0.00,weatherlink.com 1.10,2013-03-13 23:40:00,
2013-03-13 19:55:00,42.4,20.0,29.78,NW,307,6.0,8.0,41,0.00,,,0.00,weatherlink.com 1.10,2013-03-13 23:55:00,
2013-03-13 20:10:00,41.9,20.0,29.79,West,281,2.0,7.0,42,0.00,,,0.00,weatherlink.com 1.10,2013-03-14 00:10:00,
2013-03-13 20:25:00,41.3,20.0,29.80,West,267,2.0,5.0,43,0.00,,,0.00,weatherlink.com 1.10,2013-03-14 00:25:00,
2013-03-13 20:40:00,40.2,20.0,29.80,West,272,0.0,1.0,45,0.00,,,0.00,weatherlink.com 1.10,2013-03-14 00:40:00,
2013-03-13 20:55:00,38.6,20.0,29.80,West,273,0.0,0.0,48,0.00,,,0.00,weatherlink.com 1.10,2013-03-14 00:55:00,
2013-03-13 21:10:00,37.6,21.0,29.80,West,259,0.0,1.0,52,0.00,,,0.00,weatherlink.com 1.10,2013-03-14 01:10:00,
2013-03-13 21:25:00,37.2,21.0,29.81,WSW,258,0.0,1.0,52,0.00,,,0.00,weatherlink.com 1.10,2013-03-14 01:25:00,
2013-03-13 21:40:00,36.2,21.0,29.81,West,259,0.0,0.0,54,0.00,,,0.00,weatherlink.com 1.10,2013-03-14 01:40:00,
2013-03-13 21:55:00,36.4,21.0,29.80,West,259,0.0,1.0,53,0.00,,,0.00,weatherlink.com 1.10,2013-03-14 01:55:00,
2013-03-13 22:10:00,35.1,22.0,29.81,West,259,0.0,1.0,60,0.00,,,0.00,weatherlink.com 1.10,2013-03-14 02:10:00,
2013-03-13 22:25:00,34.3,23.0,29.80,West,259,0.0,0.0,63,0.00,,,0.00,weatherlink.com 1.10,2013-03-14 02:25:00,
2013-03-13 22:40:00,33.6,23.0,29.80,West,259,0.0,0.0,66,0.00,,,0.00,weatherlink.com 1.10,2013-03-14 02:40:00,
2013-03-13 22:55:00,33.9,22.0,29.80,West,259,0.0,1.0,61,0.00,,,0.00,weatherlink.com 1.10,2013-03-14 02:55:00,
2013-03-13 23:10:00,32.2,22.0,29.80,West,259,0.0,0.0,67,0.00,,,0.00,weatherlink.com 1.10,2013-03-14 03:10:00,
2013-03-13 23:56:00,32.7,22.0,29.80,NNW,335,1.0,1.0,64,0.00,,,0.00,weatherlink.com 1.10,2013-03-14 03:56:00,